Time,TemperatureF,DewpointF,PressureIn,WindDirection,WindDirectionDegrees,WindSpeedMPH,WindSpeedGustMPH,Humidity,HourlyPrecipIn,Conditions,Clouds,dailyrainin,SoftwareType,DateUTC
2013-03-04 00:09:00,62.0,23.7,26.71,East,90,0.0,0.0,23,0.00,,,0.00,Weather View 32 v70,2013-03-04 07:09:00,
2013-03-04 00:19:00,62.0,23.7,26.71,East,90,0.0,0.0,23,0.00,,,0.00,Weather View 32 v70,2013-03-04 07:19:00,
2013-03-04 00:29:00,62.0,22.6,26.70,SSW,202,0.0,0.0,22,0.00,,,0.00,Weather View 32 v70,2013-03-04 07:29:00,
2013-03-04 00:39:00,62.0,22.6,26.70,SSW,202,0.0,0.0,22,0.00,,,0.00,Weather View 32 v70,2013-03-04 07:39:00,
2013-03-04 00:49:00,62.0,21.5,26.69,SSW,202,0.0,0.0,21,0.00,,,0.00,Weather View 32 v70,2013-03-04 07:49:00,
2013-03-04 00:59:00,61.0,21.8,26.69,WSW,247,0.0,0.0,22,0.00,,,0.00,Weather View 32 v70,2013-03-04 07:59:00,
2013-03-04 01:09:00,61.0,22.9,26.69,WSW,247,0.0,0.0,23,0.00,,,0.00,Weather View 32 v70,2013-03-04 08:09:00,
2013-03-04 01:19:00,61.0,22.9,26.69,NW,315,0.0,0.0,23,0.00,,,0.00,Weather View 32 v70,2013-03-04 08:19:00,
2013-03-04 01:29:00,61.0,23.9,26.70,North,360,0.0,0.0,24,0.00,,,0.00,Weather View 32 v70,2013-03-04 08:29:00,
2013-03-04 01:34:00,61.0,23.9,26.70,North,360,0.0,0.0,24,0.00,,,0.00,Weather View 32 v70,2013-03-04 08:34:00,
2013-03-04 01:49:00,61.0,22.9,26.70,NW,315,0.0,0.0,23,0.00,,,0.00,Weather View 32 v70,2013-03-04 08:49:00,
2013-03-04 01:59:00,61.0,22.9,26.70,ESE,112,0.0,0.0,23,0.00,,,0.00,Weather View 32 v70,2013-03-04 08:59:00,
2013-03-04 02:09:00,61.0,21.8,26.69,SE,135,0.0,0.0,22,0.00,,,0.00,Weather View 32 v70,2013-03-04 09:09:00,
2013-03-04 02:19:00,61.0,20.7,26.69,ESE,112,0.0,0.0,21,0.00,,,0.00,Weather View 32 v70,2013-03-04 09:19:00,
2013-03-04 02:29:00,61.0,20.7,26.69,SSW,202,0.0,0.0,21,0.00,,,0.00,Weather View 32 v70,2013-03-04 09:29:00,
2013-03-04 02:35:00,61.0,20.7,26.69,SSW,202,0.0,0.0,21,0.00,,,0.00,Weather View 32 v70,2013-03-04 09:35:00,
2013-03-04 02:49:00,61.0,22.9,26.69,West,270,0.0,0.0,23,0.00,,,0.00,Weather View 32 v70,2013-03-04 09:49:00,
2013-03-04 02:59:00,61.0,22.9,26.68,East,90,0.0,0.0,23,0.00,,,0.00,Weather View 32 v70,2013-03-04 09:59:00,
2013-03-04 03:09:00,60.0,23.0,26.67,WNW,292,0.0,0.0,24,0.00,,,0.00,Weather View 32 v70,2013-03-04 10:09:00,
2013-03-04 03:19:00,60.0,22.0,26.67,SSW,202,0.0,0.0,23,0.00,,,0.00,Weather View 32 v70,2013-03-04 10:19:00,
2013-03-04 03:29:00,60.0,23.0,26.67,SSE,157,0.0,0.0,24,0.00,,,0.00,Weather View 32 v70,2013-03-04 10:29:00,
2013-03-04 03:36:00,60.0,23.0,26.67,SSE,157,0.0,0.0,24,0.00,,,0.00,Weather View 32 v70,2013-03-04 10:36:00,
2013-03-04 03:49:00,59.0,21.2,26.67,South,180,0.0,0.0,23,0.00,,,0.00,Weather View 32 v70,2013-03-04 10:49:00,
2013-03-04 03:59:00,59.0,20.1,26.67,SE,135,0.0,0.0,22,0.00,,,0.00,Weather View 32 v70,2013-03-04 10:59:00,
2013-03-04 04:09:00,59.0,21.2,26.67,South,180,0.0,0.0,23,0.00,,,0.00,Weather View 32 v70,2013-03-04 11:09:00,
2013-03-04 04:19:00,59.0,21.2,26.67,WSW,247,0.0,0.0,23,0.00,,,0.00,Weather View 32 v70,2013-03-04 11:19:00,
2013-03-04 04:29:00,59.0,21.2,26.67,NE,45,0.0,0.0,23,0.00,,,0.00,Weather View 32 v70,2013-03-04 11:29:00,
2013-03-04 04:36:00,59.0,21.2,26.67,NE,45,0.0,0.0,23,0.00,,,0.00,Weather View 32 v70,2013-03-04 11:36:00,
2013-03-04 04:49:00,59.0,17.9,26.67,SE,135,0.0,5.0,20,0.00,,,0.00,Weather View 32 v70,2013-03-04 11:49:00,
2013-03-04 04:59:00,59.0,22.2,26.67,West,270,0.0,5.0,24,0.00,,,0.00,Weather View 32 v70,2013-03-04 11:59:00,
2013-03-04 05:09:00,59.0,21.2,26.68,West,270,0.0,5.0,23,0.00,,,0.00,Weather View 32 v70,2013-03-04 12:09:00,
2013-03-04 05:19:00,59.0,21.2,26.69,SSW,202,0.0,5.0,23,0.00,,,0.00,Weather View 32 v70,2013-03-04 12:19:00,
2013-03-04 05:29:00,59.0,21.2,26.69,South,180,0.0,5.0,23,0.00,,,0.00,Weather View 32 v70,2013-03-04 12:29:00,
2013-03-04 05:37:00,59.0,21.2,26.69,South,180,0.0,5.0,23,0.00,,,0.00,Weather View 32 v70,2013-03-04 12:37:00,
2013-03-04 05:49:00,58.0,19.3,26.69,SE,135,2.0,5.0,22,0.00,,,0.00,Weather View 32 v70,2013-03-04 12:49:00,
2013-03-04 05:59:00,59.0,20.1,26.69,SW,225,0.0,6.0,22,0.00,,,0.00,Weather View 32 v70,2013-03-04 12:59:00,
2013-03-04 06:09:00,59.0,20.1,26.70,West,270,0.0,6.0,22,0.00,,,0.00,Weather View 32 v70,2013-03-04 13:09:00,
2013-03-04 06:19:00,58.0,18.2,26.71,South,180,0.0,6.0,21,0.00,,,0.00,Weather View 32 v70,2013-03-04 13:19:00,
2013-03-04 06:29:00,58.0,18.2,26.71,South,180,0.0,6.0,21,0.00,,,0.00,Weather View 32 v70,2013-03-04 13:29:00,
2013-03-04 06:37:00,58.0,18.2,26.71,South,180,0.0,6.0,21,0.00,,,0.00,Weather View 32 v70,2013-03-04 13:37:00,
2013-03-04 06:49:00,58.0,17.1,26.71,SE,135,3.0,6.0,20,0.00,,,0.00,Weather View 32 v70,2013-03-04 13:49:00,
2013-03-04 06:59:00,58.0,17.1,26.71,SE,135,4.0,6.0,20,0.00,,,0.00,Weather View 32 v70,2013-03-04 13:59:00,
2013-03-04 07:09:00,58.0,18.2,26.71,SE,135,8.0,8.0,21,0.00,,,0.00,Weather View 32 v70,2013-03-04 14:09:00,
2013-03-04 07:19:00,58.0,17.1,26.71,SE,135,5.0,10.0,20,0.00,,,0.00,Weather View 32 v70,2013-03-04 14:19:00,
2013-03-04 07:29:00,59.0,16.7,26.71,SE,135,0.0,11.0,19,0.00,,,0.00,Weather View 32 v70,2013-03-04 14:29:00,
2013-03-04 07:38:00,59.0,16.7,26.71,SE,135,0.0,11.0,19,0.00,,,0.00,Weather View 32 v70,2013-03-04 14:38:00,
2013-03-04 07:49:00,59.0,17.9,26.71,South,180,0.0,15.0,20,0.00,,,0.00,Weather View 32 v70,2013-03-04 14:49:00,
2013-03-04 07:59:00,60.0,17.5,26.72,SE,135,7.0,15.0,19,0.00,,,0.00,Weather View 32 v70,2013-03-04 14:59:00,
2013-03-04 08:09:00,60.0,17.5,26.73,SSE,157,0.0,15.0,19,0.00,,,0.00,Weather View 32 v70,2013-03-04 15:09:00,
2013-03-04 08:19:00,61.0,18.4,26.72,SSE,157,9.0,15.0,19,0.00,,,0.00,Weather View 32 v70,2013-03-04 15:19:00,
2013-03-04 08:29:00,61.0,18.4,26.71,South,180,4.0,15.0,19,0.00,,,0.00,Weather View 32 v70,2013-03-04 15:29:00,
2013-03-04 08:38:00,61.0,18.4,26.71,South,180,4.0,15.0,19,0.00,,,0.00,Weather View 32 v70,2013-03-04 15:38:00,
2013-03-04 08:49:00,62.0,19.2,26.71,SSE,157,3.0,15.0,19,0.00,,,0.00,Weather View 32 v70,2013-03-04 15:49:00,
2013-03-04 08:59:00,63.0,20.0,26.71,SSE,157,4.0,16.0,19,0.00,,,0.00,Weather View 32 v70,2013-03-04 15:59:00,
2013-03-04 09:09:00,63.0,18.7,26.71,SE,135,8.0,16.0,18,0.00,,,0.00,Weather View 32 v70,2013-03-04 16:09:00,
2013-03-04 09:19:00,64.0,22.0,26.72,South,180,1.0,20.0,20,0.00,,,0.00,Weather View 32 v70,2013-03-04 16:19:00,
2013-03-04 09:29:00,64.0,22.0,26.71,SE,135,3.0,20.0,20,0.00,,,0.00,Weather View 32 v70,2013-03-04 16:29:00,
2013-03-04 09:39:00,64.0,22.0,26.71,SE,135,3.0,20.0,20,0.00,,,0.00,Weather View 32 v70,2013-03-04 16:39:00,
2013-03-04 09:49:00,64.0,26.4,26.71,SE,135,3.0,20.0,24,0.00,,,0.00,Weather View 32 v70,2013-03-04 16:49:00,
2013-03-04 09:59:00,65.0,27.2,26.71,South,180,4.0,20.0,24,0.00,,,0.00,Weather View 32 v70,2013-03-04 16:59:00,
2013-03-04 10:09:00,66.0,28.1,26.71,South,180,4.0,20.0,24,0.00,,,0.00,Weather View 32 v70,2013-03-04 17:09:00,
2013-03-04 10:19:00,67.0,29.9,26.71,SSE,157,4.0,16.0,25,0.00,,,0.00,Weather View 32 v70,2013-03-04 17:19:00,
2013-03-04 10:29:00,66.0,31.0,26.71,South,180,10.0,21.0,27,0.00,,,0.00,Weather View 32 v70,2013-03-04 17:29:00,
2013-03-04 10:40:00,66.0,31.0,26.70,SE,135,9.0,21.0,27,0.00,,,0.00,Weather View 32 v70,2013-03-04 17:40:00,
2013-03-04 10:49:00,66.0,31.0,26.71,South,180,3.0,21.0,27,0.00,,,0.00,Weather View 32 v70,2013-03-04 17:49:00,
2013-03-04 10:59:00,66.0,31.0,26.71,SSE,157,5.0,21.0,27,0.00,,,0.00,Weather View 32 v70,2013-03-04 17:59:00,
2013-03-04 11:09:00,67.0,31.8,26.69,South,180,11.0,21.0,27,0.00,,,0.00,Weather View 32 v70,2013-03-04 18:09:00,
2013-03-04 11:19:00,67.0,29.9,26.70,South,180,5.0,21.0,25,0.00,,,0.00,Weather View 32 v70,2013-03-04 18:19:00,
2013-03-04 11:29:00,66.0,31.0,26.70,SSE,157,0.0,18.0,27,0.00,,,0.00,Weather View 32 v70,2013-03-04 18:29:00,
2013-03-04 11:39:00,66.0,30.1,26.71,SSE,157,9.0,24.0,26,0.00,,,0.00,Weather View 32 v70,2013-03-04 18:39:00,
2013-03-04 11:49:00,67.0,29.9,26.70,SSW,202,14.0,24.0,25,0.00,,,0.00,Weather View 32 v70,2013-03-04 18:49:00,
2013-03-04 11:59:00,67.0,31.8,26.69,SSE,157,7.0,24.0,27,0.00,,,0.00,Weather View 32 v70,2013-03-04 18:59:00,
2013-03-04 12:09:00,68.0,30.8,26.69,SE,135,4.0,24.0,25,0.00,,,0.00,Weather View 32 v70,2013-03-04 19:09:00,
2013-03-04 12:19:00,68.0,30.8,26.69,South,180,3.0,24.0,25,0.00,,,0.00,Weather View 32 v70,2013-03-04 19:19:00,
2013-03-04 12:29:00,67.0,30.9,26.70,SSW,202,10.0,24.0,26,0.00,,,0.00,Weather View 32 v70,2013-03-04 19:29:00,
2013-03-04 12:39:00,68.0,30.8,26.70,SSE,157,6.0,20.0,25,0.00,,,0.00,Weather View 32 v70,2013-03-04 19:39:00,
2013-03-04 12:49:00,68.0,31.8,26.69,South,180,14.0,20.0,26,0.00,,,0.00,Weather View 32 v70,2013-03-04 19:49:00,
2013-03-04 12:59:00,67.0,30.9,26.69,SSW,202,8.0,21.0,26,0.00,,,0.00,Weather View 32 v70,2013-03-04 19:59:00,
2013-03-04 13:09:00,68.0,30.8,26.69,SW,225,4.0,21.0,25,0.00,,,0.00,Weather View 32 v70,2013-03-04 20:09:00,
2013-03-04 13:19:00,68.0,30.8,26.69,South,180,3.0,21.0,25,0.00,,,0.00,Weather View 32 v70,2013-03-04 20:19:00,
2013-03-04 13:29:00,68.0,30.8,26.69,South,180,15.0,21.0,25,0.00,,,0.00,Weather View 32 v70,2013-03-04 20:29:00,
2013-03-04 13:39:00,68.0,30.8,26.69,SSW,202,9.0,23.0,25,0.00,,,0.00,Weather View 32 v70,2013-03-04 20:39:00,
2013-03-04 13:49:00,68.0,30.8,26.68,SSE,157,0.0,23.0,25,0.00,,,0.00,Weather View 32 v70,2013-03-04 20:49:00,
2013-03-04 13:59:00,68.0,29.8,26.68,South,180,8.0,23.0,24,0.00,,,0.00,Weather View 32 v70,2013-03-04 20:59:00,
2013-03-04 14:09:00,68.0,29.8,26.68,South,180,12.0,23.0,24,0.00,,,0.00,Weather View 32 v70,2013-03-04 21:09:00,
2013-03-04 14:19:00,69.0,28.5,26.68,SSE,157,2.0,23.0,22,0.00,,,0.00,Weather View 32 v70,2013-03-04 21:19:00,
2013-03-04 14:29:00,69.0,28.5,26.68,South,180,13.0,23.0,22,0.00,,,0.00,Weather View 32 v70,2013-03-04 21:29:00,
2013-03-04 14:39:00,68.0,27.6,26.68,SSW,202,9.0,22.0,22,0.00,,,0.00,Weather View 32 v70,2013-03-04 21:39:00,
2013-03-04 14:49:00,68.0,28.7,26.68,SSW,202,10.0,23.0,23,0.00,,,0.00,Weather View 32 v70,2013-03-04 21:49:00,
2013-03-04 14:59:00,68.0,29.8,26.68,SW,225,8.0,23.0,24,0.00,,,0.00,Weather View 32 v70,2013-03-04 21:59:00,
2013-03-04 15:09:00,69.0,28.5,26.69,SSE,157,0.0,23.0,22,0.00,,,0.00,Weather View 32 v70,2013-03-04 22:09:00,
2013-03-04 15:19:00,68.0,29.8,26.69,SSW,202,9.0,23.0,24,0.00,,,0.00,Weather View 32 v70,2013-03-04 22:19:00,
2013-03-04 15:29:00,69.0,30.6,26.69,SW,225,7.0,23.0,24,0.00,,,0.00,Weather View 32 v70,2013-03-04 22:29:00,
2013-03-04 15:39:00,69.0,29.6,26.69,SW,225,15.0,23.0,23,0.00,,,0.00,Weather View 32 v70,2013-03-04 22:39:00,
2013-03-04 15:49:00,69.0,30.6,26.69,South,180,6.0,20.0,24,0.00,,,0.00,Weather View 32 v70,2013-03-04 22:49:00,
2013-03-04 15:59:00,69.0,29.6,26.69,WSW,247,0.0,20.0,23,0.00,,,0.00,Weather View 32 v70,2013-03-04 22:59:00,
2013-03-04 16:09:00,70.0,31.5,26.69,SSW,202,6.0,19.0,24,0.00,,,0.00,Weather View 32 v70,2013-03-04 23:09:00,
2013-03-04 16:19:00,69.0,30.6,26.70,SW,225,0.0,18.0,24,0.00,,,0.00,Weather View 32 v70,2013-03-04 23:19:00,
2013-03-04 16:29:00,69.0,29.6,26.69,SSW,202,0.0,18.0,23,0.00,,,0.00,Weather View 32 v70,2013-03-04 23:29:00,
2013-03-04 16:39:00,69.0,30.6,26.71,SSW,202,0.0,16.0,24,0.00,,,0.00,Weather View 32 v70,2013-03-04 23:39:00,
2013-03-04 16:49:00,69.0,30.6,26.71,SW,225,0.0,14.0,24,0.00,,,0.00,Weather View 32 v70,2013-03-04 23:49:00,
2013-03-04 16:59:00,70.0,31.5,26.71,SSW,202,0.0,14.0,24,0.00,,,0.00,Weather View 32 v70,2013-03-04 23:59:00,
2013-03-04 17:09:00,69.0,30.6,26.70,SW,225,3.0,14.0,24,0.00,,,0.00,Weather View 32 v70,2013-03-05 00:09:00,
2013-03-04 17:19:00,69.0,30.6,26.71,WSW,247,0.0,11.0,24,0.00,,,0.00,Weather View 32 v70,2013-03-05 00:19:00,
2013-03-04 17:29:00,68.0,29.8,26.71,SW,225,0.0,11.0,24,0.00,,,0.00,Weather View 32 v70,2013-03-05 00:29:00,
2013-03-04 17:39:00,68.0,30.8,26.71,SW,225,0.0,9.0,25,0.00,,,0.00,Weather View 32 v70,2013-03-05 00:39:00,
2013-03-04 17:49:00,68.0,30.8,26.71,SW,225,0.0,9.0,25,0.00,,,0.00,Weather View 32 v70,2013-03-05 00:49:00,
2013-03-04 17:59:00,67.0,30.9,26.73,SW,225,0.0,9.0,26,0.00,,,0.00,Weather View 32 v70,2013-03-05 00:59:00,
2013-03-04 18:09:00,66.0,30.1,26.73,SW,225,0.0,9.0,26,0.00,,,0.00,Weather View 32 v70,2013-03-05 01:09:00,
2013-03-04 18:19:00,65.0,30.1,26.74,SW,225,0.0,4.0,27,0.00,,,0.00,Weather View 32 v70,2013-03-05 01:19:00,
2013-03-04 18:29:00,64.0,30.2,26.75,SW,225,0.0,0.0,28,0.00,,,0.00,Weather View 32 v70,2013-03-05 01:29:00,
2013-03-04 18:39:00,63.0,29.3,26.75,SW,225,0.0,0.0,28,0.00,,,0.00,Weather View 32 v70,2013-03-05 01:39:00,
2013-03-04 18:44:00,63.0,29.3,26.75,SW,225,0.0,0.0,28,0.00,,,0.00,Weather View 32 v70,2013-03-05 01:44:00,
2013-03-04 18:49:00,61.0,28.4,26.77,SW,225,0.0,0.0,29,0.00,,,0.00,Weather View 32 v70,2013-03-05 01:49:00,
2013-03-04 18:59:00,60.0,30.0,26.78,North,360,0.0,0.0,32,0.00,,,0.00,Weather View 32 v70,2013-03-05 01:59:00,
2013-03-04 19:09:00,59.0,30.6,26.78,NE,45,2.0,6.0,34,0.00,,,0.00,Weather View 32 v70,2013-03-05 02:09:00,
2013-03-04 19:19:00,58.0,29.7,26.79,NNE,22,3.0,9.0,34,0.00,,,0.00,Weather View 32 v70,2013-03-05 02:19:00,
2013-03-04 19:29:00,58.0,30.4,26.79,NE,45,4.0,9.0,35,0.00,,,0.00,Weather View 32 v70,2013-03-05 02:29:00,
2013-03-04 19:39:00,57.0,29.6,26.81,NE,45,0.0,9.0,35,0.00,,,0.00,Weather View 32 v70,2013-03-05 02:39:00,
2013-03-04 19:45:00,57.0,29.6,26.81,NE,45,0.0,9.0,35,0.00,,,0.00,Weather View 32 v70,2013-03-05 02:45:00,
2013-03-04 19:59:00,56.0,29.4,26.81,NNE,22,2.0,9.0,36,0.00,,,0.00,Weather View 32 v70,2013-03-05 02:59:00,
2013-03-04 20:09:00,56.0,29.4,26.81,NE,45,4.0,10.0,36,0.00,,,0.00,Weather View 32 v70,2013-03-05 03:09:00,
2013-03-04 20:19:00,56.0,30.0,26.82,NE,45,1.0,10.0,37,0.00,,,0.00,Weather View 32 v70,2013-03-05 03:19:00,
2013-03-04 20:29:00,56.0,30.7,26.82,North,360,0.0,10.0,38,0.00,,,0.00,Weather View 32 v70,2013-03-05 03:29:00,
2013-03-04 20:39:00,55.0,29.8,26.83,North,360,0.0,10.0,38,0.00,,,0.00,Weather View 32 v70,2013-03-05 03:39:00,
2013-03-04 20:45:00,55.0,29.8,26.83,North,360,0.0,10.0,38,0.00,,,0.00,Weather View 32 v70,2013-03-05 03:45:00,
2013-03-04 20:59:00,54.0,29.6,26.84,NNE,22,3.0,10.0,39,0.00,,,0.00,Weather View 32 v70,2013-03-05 03:59:00,
2013-03-04 21:09:00,54.0,29.6,26.85,NNE,22,0.0,7.0,39,0.00,,,0.00,Weather View 32 v70,2013-03-05 04:09:00,
2013-03-04 21:19:00,54.0,28.9,26.85,ENE,67,0.0,7.0,38,0.00,,,0.00,Weather View 32 v70,2013-03-05 04:19:00,
2013-03-04 21:29:00,53.0,29.3,26.86,NE,45,0.0,7.0,40,0.00,,,0.00,Weather View 32 v70,2013-03-05 04:29:00,
2013-03-04 21:39:00,53.0,30.5,26.86,NNE,22,0.0,7.0,42,0.00,,,0.00,Weather View 32 v70,2013-03-05 04:39:00,
2013-03-04 21:46:00,53.0,30.5,26.86,NNE,22,0.0,7.0,42,0.00,,,0.00,Weather View 32 v70,2013-03-05 04:46:00,
2013-03-04 21:59:00,52.0,30.2,26.87,ENE,67,0.0,6.0,43,0.00,,,0.00,Weather View 32 v70,2013-03-05 04:59:00,
2013-03-04 22:09:00,52.0,30.2,26.87,North,360,0.0,0.0,43,0.00,,,0.00,Weather View 32 v70,2013-03-05 05:09:00,
2013-03-04 22:19:00,52.0,30.7,26.87,NE,45,0.0,4.0,44,0.00,,,0.00,Weather View 32 v70,2013-03-05 05:19:00,
2013-03-04 22:29:00,52.0,30.7,26.87,NNE,22,0.0,4.0,44,0.00,,,0.00,Weather View 32 v70,2013-03-05 05:29:00,
2013-03-04 22:39:00,52.0,30.7,26.87,NNW,337,0.0,6.0,44,0.00,,,0.00,Weather View 32 v70,2013-03-05 05:39:00,
2013-03-04 22:46:00,52.0,30.7,26.87,NNW,337,0.0,6.0,44,0.00,,,0.00,Weather View 32 v70,2013-03-05 05:46:00,
2013-03-04 22:59:00,51.0,29.2,26.87,East,90,0.0,6.0,43,0.00,,,0.00,Weather View 32 v70,2013-03-05 05:59:00,
2013-03-04 23:09:00,51.0,29.8,26.88,East,90,0.0,6.0,44,0.00,,,0.00,Weather View 32 v70,2013-03-05 06:09:00,
2013-03-04 23:19:00,51.0,30.4,26.88,NE,45,0.0,6.0,45,0.00,,,0.00,Weather View 32 v70,2013-03-05 06:19:00,
2013-03-04 23:29:00,51.0,30.4,26.88,NE,45,4.0,6.0,45,0.00,,,0.00,Weather View 32 v70,2013-03-05 06:29:00,
2013-03-04 23:39:00,51.0,30.4,26.87,NNW,337,0.0,6.0,45,0.00,,,0.00,Weather View 32 v70,2013-03-05 06:39:00,
2013-03-04 23:47:00,51.0,30.4,26.87,NNW,337,0.0,6.0,45,0.00,,,0.00,Weather View 32 v70,2013-03-05 06:47:00,
2013-03-04 23:59:00,51.0,30.4,26.87,NNW,337,0.0,10.0,45,0.00,,,0.00,Weather View 32 v70,2013-03-05 06:59:00,